DW1685 Weather Reports


Display with metric or nautical units.
time (UTC)temp
F
wind
direction
speed
MPH
gust
MPH
rain 1hr
in
rain 24hr
in
rain mn
in
humidity
%
barometer
mb
20180124071632 54 229 0.0 0.0 0.00 0.00 0.01 54 1020.2
20180124070126 54 229 0.0 0.0 0.00 0.00 0.01 57 1020.5
20180124064622 54 229 0.0 0.0 0.00 0.00 0.01 62 1020.7
20180124063119 53 229 0.0 0.0 0.00 0.00 0.01 63 1020.6
20180124061613 53 229 0.0 0.0 0.00 0.00 0.01 63 1020.6
20180124060109 53 229 0.0 0.0 0.00 0.00 0.01 63 1020.8
20180124054604 53 229 0.0 0.0 0.00 0.00 0.01 63 1020.7
20180124053103 53 229 0.0 0.0 0.00 0.00 0.01 63 1020.8
20180124051559 54 229 0.0 0.0 0.00 0.00 0.01 63 1020.7
20180124050052 54 229 0.0 0.0 0.00 0.00 0.01 63 1020.6
20180124044547 54 229 0.0 0.0 0.00 0.00 0.01 63 1020.8
20180124043046 54 229 0.0 0.0 0.00 0.00 0.01 63 1020.8
20180124041539 54 229 0.0 0.0 0.00 0.00 0.01 63 1020.8
20180124040036 54 229 0.0 0.0 0.00 0.00 0.01 59 1020.7
20180124034530 54 229 0.0 0.0 0.00 0.00 0.01 61 1020.8
20180124033029 54 229 0.0 0.0 0.00 0.00 0.01 62 1020.8
20180124031525 54 229 0.0 0.0 0.00 0.00 0.01 61 1020.8
20180124030021 54 229 0.0 0.0 0.00 0.00 0.01 54 1020.9
20180124024512 54 229 0.0 0.0 0.00 0.00 0.01 54 1020.8
20180124023007 54 229 0.0 0.0 0.00 0.00 0.01 52 1020.8
20180124021503 54 229 0.0 0.0 0.00 0.00 0.01 48 1020.9
20180124015959 54 229 0.0 0.0 0.00 0.00 0.01 51 1020.9
20180124014454 55 229 1.0 0.0 0.00 0.00 0.01 57 1020.9
20180124012950 57 229 0.0 0.0 0.00 0.00 0.01 61 1020.7
20180124011446 58 229 0.0 0.0 0.00 0.00 0.01 62 1020.7
20180124005941 60 229 0.0 0.0 0.00 0.00 0.01 62 1020.8
20180124004437 60 228 0.0 0.0 0.00 0.00 0.01 62 1020.8
20180124002932 59 228 0.0 0.0 0.00 0.00 0.01 61 1020.8
20180124001429 58 228 0.0 0.0 0.00 0.00 0.01 58 1020.9
20180123235924 57 228 1.0 0.0 0.00 0.00 0.01 58 1020.8
20180123234421 57 228 2.0 0.0 0.00 0.00 0.01 60 1020.9
20180123232916 57 228 4.0 0.0 0.00 0.00 0.01 62 1020.8
20180123231410 56 227 4.0 0.0 0.00 0.00 0.01 63 1020.9
20180123225906 56 228 4.0 0.0 0.00 0.00 0.01 63 1020.9
20180123224400 56 228 5.0 0.0 0.00 0.00 0.01 63 1020.8
20180123222859 56 229 5.0 0.0 0.00 0.00 0.01 63 1020.9
20180123221355 56 231 5.0 0.0 0.00 0.00 0.01 63 1021.0
20180123215849 55 232 6.0 0.0 0.00 0.00 0.01 62 1021.2
20180123214347 56 235 6.0 0.0 0.00 0.00 0.01 63 1021.3
20180123212840 58 247 2.0 0.0 0.00 0.00 0.01 63 1021.4
20180123211340 57 252 3.0 0.0 0.00 0.00 0.01 62 1021.4
20180123205831 58 261 1.0 0.0 0.00 0.00 0.01 61 1021.6
20180123204328 57 264 2.0 0.0 0.00 0.00 0.01 59 1021.9
20180123202822 57 268 3.0 0.0 0.00 0.00 0.01 62 1022.2
20180123201320 57 276 2.0 0.0 0.00 0.00 0.01 62 1022.4
20180123195814 57 283 2.0 0.0 0.00 0.00 0.01 62 1022.8
20180123194310 58 285 2.0 0.0 0.00 0.00 0.01 62 1022.9
20180123192805 58 286 1.0 0.0 0.00 0.00 0.01 54 1023.1
20180123191301 57 286 1.0 0.0 0.00 0.00 0.01 60 1023.5
20180123185758 56 286 1.0 0.0 0.00 0.00 0.01 56 1023.6
20180123184250 56 286 1.0 0.0 0.00 0.00 0.01 55 1023.7
20180123182746 56 286 1.0 0.0 0.00 0.00 0.01 57 1023.5
20180123181242 56 286 0.0 0.0 0.00 0.00 0.01 53 1023.4
20180123175738 58 286 0.0 0.0 0.00 0.00 0.01 52 1023.2
20180123174236 57 286 0.0 0.0 0.00 0.00 0.01 53 1023.1
20180123172732 57 286 0.0 0.0 0.00 0.00 0.01 53 1023.1
20180123171227 56 286 0.0 0.0 0.00 0.00 0.01 57 1023.1
20180123165723 56 286 0.0 0.0 0.00 0.00 0.01 52 1023.2
20180123164218 55 286 0.0 0.0 0.00 0.00 0.01 55 1023.0
20180123162713 54 286 0.0 0.0 0.00 0.00 0.01 57 1022.9
20180123161207 53 286 0.0 0.0 0.00 0.00 0.01 61 1022.7
20180123155703 53 286 0.0 0.0 0.00 0.00 0.01 61 1022.8
20180123154158 52 286 0.0 0.0 0.00 0.00 0.01 60 1022.8
20180123152653 52 286 0.0 0.0 0.00 0.00 0.01 58 1022.8
20180123151150 52 286 0.0 0.0 0.00 0.00 0.01 57 1022.8
20180123145645 52 286 0.0 0.0 0.00 0.00 0.01 57 1022.9
20180123144142 51 286 0.0 0.0 0.00 0.00 0.01 53 1022.8
20180123142637 51 286 0.0 0.0 0.00 0.00 0.01 51 1022.6
20180123141134 50 286 1.0 0.0 0.00 0.00 0.01 48 1022.6
20180123134123 51 286 0.0 0.0 0.00 0.00 0.01 55 1022.7
20180123132620 51 286 0.0 0.0 0.00 0.00 0.01 56 1022.5
20180123131116 51 286 0.0 0.0 0.00 0.00 0.01 54 1022.3
20180123125610 50 286 0.0 0.0 0.00 0.00 0.01 45 1022.4
20180123124107 50 286 0.0 0.0 0.00 0.00 0.01 43 1022.5
20180123122601 50 286 0.0 0.0 0.00 0.00 0.01 37 1022.6
20180123121103 50 286 0.0 0.0 0.00 0.00 0.01 35 1022.6
20180123115553 50 286 0.0 0.0 0.00 0.00 0.01 35 1022.6
20180123114047 50 286 0.0 0.0 0.00 0.00 0.01 27 1022.8
20180123112544 50 286 0.0 0.0 0.00 0.00 0.01 16 1023.1
20180123111041 50 286 0.0 0.0 0.00 0.00 0.01 20 1023.3
20180123105540 50 286 0.0 0.0 0.00 0.00 0.01 17 1023.5
20180123104030 50 286 0.0 0.0 0.00 0.00 0.01 20 1023.5
20180123102531 50 286 0.0 0.0 0.00 0.00 0.00 17 1023.5
20180123101023 50 286 0.0 0.0 0.00 0.00 0.00 16 1023.4
20180123095523 50 286 0.0 0.0 0.00 0.00 0.00 15 1023.3
20180123094013 50 286 0.0 0.0 0.00 0.00 0.00 15 1023.4
20180123092510 50 286 0.0 0.0 0.00 0.00 0.00 5 1023.6
20180123091004 50 286 0.0 0.0 0.00 0.00 0.00 100 1023.8
20180123085501 49 286 0.0 0.0 0.00 0.00 0.00 100 1023.9
20180123083955 50 286 0.0 0.0 0.00 0.00 0.00 8 1024.0
20180123082451 50 286 0.0 0.0 0.00 0.00 0.00 8 1024.0
20180123080947 50 286 1.0 0.0 0.00 0.00 0.00 7 1024.2
20180123075444 50 286 1.0 0.0 0.00 0.00 0.11 100 1024.1
20180123073939 50 286 0.0 0.0 0.00 0.00 0.11 100 1024.1